Mosby, MO

4:50 AM CST on December 16, 2019 (GMT -0600)
Clay County Regional

Weather History for KGPH - October, 2019

Change the Weather History Date:

Thursday, October 10, 2019

  Actual Average (KMKC) Record (KMKC)
Temperature  
Mean Temperature 56 °F -  
Max Temperature 69 °F 68 °F 82 °F (1997)
Min Temperature 42 °F 48 °F 33 °F (2000)
Degree Days  
Heating Degree Days 10    
Growing Degree Days 6 (Base 50)    
Moisture  
Dew Point 40 °F    
Average Humidity 68    
Maximum Humidity 94    
Minimum Humidity 6    
Precipitation  
Precipitation 0.00 in - - ()
Sea Level Pressure  
Sea Level Pressure 29.83 in    
Wind  
Wind Speed 3 mph ()    
Max Wind Speed 18 mph    
Max Gust Speed 28 mph    
Visibility 9.7 miles    
Events Rain , Thunderstorm    
Averages and records for this station are not official NWS values.
T = Trace of Precipitation, MM = Missing Value Source: Averaged Metar Reports

Daily Weather History Graph

Daily Weather History Graph

Search for Another Location

Airport or City:

Astronomy

Oct. 10, 2019 Rise Set
Actual Time 7:21 AM CDT 6:46 PM CDT
Civil Twilight 6:54 AM CDT 7:12 PM CDT
Nautical Twilight 6:23 AM CDT 7:43 PM CDT
Astronomical Twilight 5:52 AM CDT 8:14 PM CDT
Moon 5:46 PM CDT (10/10) 4:07 AM CDT (10/10)
Length of Visible Light 12h 17m
Length of Day
11h 24m
Waxing Gibbous, 91% of the Moon is Illuminated
Oct 10
Waxing Gibbous
Oct 13
Full
Oct 21
Last Quarter
Oct 27
New
Nov 4
First Quarter

Hourly Weather History & Observations

Time (CDT) Temp. Windchill Dew Point Humidity Pressure Visibility Wind Dir Wind Speed Gust Speed Precip Events Conditions
12:15 AM 60.8 °F - -5.8 °F 7% 29.88 in 10.0 mi Calm Calm - N/A   Mostly Cloudy
12:35 AM 60.8 °F - -7.6 °F 6% 29.88 in 10.0 mi Calm Calm - N/A   Mostly Cloudy
12:55 AM 60.8 °F - -7.6 °F 6% 29.87 in 10.0 mi Calm Calm - N/A   Overcast
1:15 AM 60.8 °F - -7.6 °F 6% 29.87 in 10.0 mi Calm Calm - N/A Thunderstorm Overcast
1:35 AM 60.8 °F - -5.8 °F 7% 29.86 in 10.0 mi Calm Calm - N/A Rain Light Rain
1:55 AM 60.8 °F - -4.0 °F 7% 29.86 in 10.0 mi Calm Calm - N/A   Overcast
2:15 AM 60.8 °F - -5.8 °F 7% 29.86 in 10.0 mi Calm Calm - N/A   Unknown
2:35 AM 60.8 °F - -5.8 °F 7% 29.85 in 10.0 mi Calm Calm - N/A   Overcast
2:55 AM 60.8 °F - -7.6 °F 6% 29.84 in 10.0 mi Calm Calm - N/A   Overcast
3:15 AM 60.8 °F - -5.8 °F 7% 29.82 in 10.0 mi Calm Calm - N/A Rain Light Rain
3:35 AM 60.8 °F - -5.8 °F 7% 29.81 in 10.0 mi SE 3.5 mph - N/A Thunderstorm Overcast
3:55 AM 60.8 °F - -4.0 °F 7% 29.79 in 10.0 mi Calm Calm - N/A Thunderstorm Overcast
4:15 AM 60.8 °F - -5.8 °F 7% 29.77 in 10.0 mi SE 6.9 mph - N/A Rain , Thunderstorm Light Thunderstorms and Rain
4:35 AM 60.8 °F - -4.0 °F 7% 29.78 in 10.0 mi SSE 3.5 mph - N/A Thunderstorm Unknown
4:55 AM 60.8 °F - 57.2 °F 88% 29.79 in 10.0 mi Calm Calm - N/A Rain , Thunderstorm Light Thunderstorms and Rain
5:15 AM 60.8 °F - 57.2 °F 88% 29.80 in 10.0 mi Calm Calm - N/A Rain , Thunderstorm Light Thunderstorms and Rain
5:35 AM 59.0 °F - 57.2 °F 94% 29.79 in 3.0 mi Calm Calm - N/A Rain , Thunderstorm Light Thunderstorms and Rain
5:55 AM 60.8 °F - 57.2 °F 88% 29.77 in 10.0 mi ESE 4.6 mph - N/A Thunderstorm Overcast
6:15 AM 60.8 °F - 59.0 °F 94% 29.77 in 10.0 mi ESE 8.1 mph - N/A   Overcast
6:35 AM 60.8 °F - 59.0 °F 94% 29.78 in 10.0 mi Calm Calm - N/A   Overcast
6:55 AM 62.6 °F - 59.0 °F 88% 29.77 in 10.0 mi SE 6.9 mph - N/A   Overcast
7:15 AM 62.6 °F - 59.0 °F 88% 29.77 in 10.0 mi SE 6.9 mph 10.4 mph N/A   Unknown
7:35 AM 62.6 °F - 59.0 °F 88% 29.76 in 10.0 mi SE 3.5 mph - N/A   Overcast
7:55 AM 64.4 °F - 59.0 °F 83% 29.77 in 10.0 mi SE 6.9 mph - N/A   Overcast
8:15 AM 64.4 °F - 59.0 °F 83% 29.78 in 10.0 mi SE 6.9 mph - N/A   Overcast
8:35 AM 64.4 °F - 59.0 °F 83% 29.78 in 10.0 mi Calm Calm - N/A   Overcast
8:55 AM 62.6 °F - 59.0 °F 88% 29.78 in 10.0 mi Calm Calm - N/A   Overcast
9:15 AM 62.6 °F - 59.0 °F 88% 29.80 in 10.0 mi Calm Calm - N/A   Overcast
9:35 AM 62.6 °F - 60.8 °F 94% 29.80 in 10.0 mi Calm Calm - N/A   Overcast
9:55 AM 64.4 °F - 60.8 °F 88% 29.80 in 10.0 mi ESE 6.9 mph - N/A   Overcast
10:15 AM 64.4 °F - 60.8 °F 88% 29.80 in 10.0 mi Calm Calm - N/A   Overcast
10:35 AM 64.4 °F - 60.8 °F 88% 29.81 in 10.0 mi Calm Calm - N/A   Overcast
10:55 AM 64.4 °F - 60.8 °F 88% 29.81 in 10.0 mi ESE 5.8 mph - N/A Rain Light Rain
11:15 AM 64.4 °F - 60.8 °F 88% 29.81 in 10.0 mi Calm Calm - N/A Rain Light Rain
11:35 AM 64.4 °F - 60.8 °F 88% 29.80 in 10.0 mi Calm Calm - N/A Rain , Thunderstorm Rain
11:55 AM 64.4 °F - 62.6 °F 94% 29.80 in 7.0 mi Calm Calm - N/A Rain Light Rain
12:15 PM 64.4 °F - 62.6 °F 94% 29.79 in 7.0 mi Calm Calm - N/A Rain Light Rain
12:35 PM 64.4 °F - 62.6 °F 94% 29.79 in 10.0 mi Calm Calm - N/A   Overcast
12:55 PM 64.4 °F - 62.6 °F 94% 29.78 in 10.0 mi Calm Calm - N/A   Overcast
1:35 PM 64.4 °F - 62.6 °F 94% 29.77 in 10.0 mi SE 6.9 mph - N/A   Overcast
1:55 PM 64.4 °F - 62.6 °F 94% 29.77 in 10.0 mi Calm Calm - N/A   Overcast
2:55 PM 68.0 °F - 64.4 °F 88% 29.75 in 10.0 mi Calm Calm - N/A   Overcast
5:55 PM 69.8 °F - 66.2 °F 88% 29.73 in 7.0 mi South 4.6 mph - N/A Rain Light Rain
6:35 PM 66.2 °F - 60.8 °F 83% 29.77 in 7.0 mi West 15.0 mph 27.6 mph N/A   Overcast
6:55 PM 59.0 °F - 53.6 °F 82% 29.80 in 10.0 mi WNW 16.1 mph 21.9 mph N/A   Overcast
7:35 PM 50.0 °F - 46.4 °F 87% 29.84 in 10.0 mi NW 15.0 mph 20.7 mph N/A   Overcast
7:55 PM 48.2 °F - 44.6 °F 87% 29.86 in 10.0 mi WNW 15.0 mph 24.2 mph N/A   Overcast
8:15 PM 46.4 °F 41.1 °F 44.6 °F 93% 29.87 in 10.0 mi WNW 11.5 mph 23.0 mph N/A   Overcast
8:35 PM 46.4 °F 40.7 °F 42.8 °F 87% 29.90 in 10.0 mi WNW 12.7 mph 25.3 mph N/A   Overcast
8:55 PM 46.4 °F 41.5 °F 41.0 °F 81% 29.91 in 10.0 mi NW 10.4 mph 24.2 mph N/A   Overcast
9:15 PM 44.6 °F 37.2 °F 41.0 °F 87% 29.92 in 10.0 mi NW 17.3 mph 25.3 mph N/A   Overcast
9:35 PM 44.6 °F 36.9 °F 41.0 °F 87% 29.94 in 10.0 mi NW 18.4 mph 25.3 mph N/A   Overcast
9:55 PM 44.6 °F 38.1 °F 39.2 °F 81% 29.95 in 10.0 mi WNW 13.8 mph 21.9 mph N/A   Overcast
10:15 PM 42.8 °F 35.4 °F 39.2 °F 87% 29.97 in 10.0 mi WNW 15.0 mph 25.3 mph N/A   Overcast
10:55 PM 44.6 °F 39.2 °F 37.4 °F 76% 29.98 in 10.0 mi NW 10.4 mph 18.4 mph N/A   Overcast
11:15 PM 42.8 °F 37.0 °F 37.4 °F 81% 29.98 in 10.0 mi NW 10.4 mph 24.2 mph N/A   Overcast
11:35 PM 42.8 °F 35.8 °F 37.4 °F 81% 29.99 in 10.0 mi NW 13.8 mph 20.7 mph N/A   Overcast
11:55 PM 42.8 °F 37.5 °F 37.4 °F 81% 30.01 in 10.0 mi WNW 9.2 mph 20.7 mph N/A   Overcast